This is the latest recevied weather packets stored in our database for station/object EW2310. If no packets are shown the sender has not sent any weather packets the latest 10 day(s).
| Time | Temp. | Humidity | Pressure | Rain* | Wind** | Luminosity | Snow |
|---|---|---|---|---|---|---|---|
| 1777925143 | 16.11° C | 78% | 1017 hPa | 0 mm | - | 0 W/m² | - |
| 1777924843 | 16.11° C | 78% | 1017 hPa | 0 mm | - | 0 W/m² | - |
| 1777924247 | 16.11° C | 78% | 1016.9 hPa | 0 mm | - | 0 W/m² | - |
| 1777923644 | 16.11° C | 77% | 1017 hPa | 0 mm | - | 0 W/m² | - |
| 1777923043 | 16.11° C | 77% | 1016.8 hPa | 0 mm | - | 0 W/m² | - |
| 1777919446 | 16.67° C | 78% | 1016.6 hPa | 0 mm | - | 0 W/m² | - |
| 1777917346 | 16.67° C | 77% | 1016.6 hPa | 0 mm | - | 11 W/m² | - |
| 1777916744 | 16.67° C | 77% | 1016.7 hPa | 0 mm | - | 16 W/m² | - |
| 1777916143 | 17.22° C | 76% | 1016.6 hPa | 0 mm | - | 26 W/m² | - |
| 1777913743 | 17.22° C | 73% | 1016.6 hPa | 0 mm | - | 49 W/m² | - |
| 1777912843 | 17.78° C | 70% | 1016.6 hPa | 0 mm | - | 62 W/m² | - |
| 1777911943 | 17.78° C | 69% | 1016.7 hPa | 0 mm | - | 72 W/m² | - |
| 1777911046 | 17.78° C | 66% | 1016.8 hPa | 0 mm | - | 181 W/m² | - |
| 1777910147 | 17.78° C | 68% | 1017 hPa | 0 mm | - | 244 W/m² | - |
| 1777909843 | 17.78° C | 70% | 1017 hPa | 0 mm | - | 178 W/m² | - |
| 1777908643 | 17.78° C | 73% | 1016.7 hPa | 0 mm | - | 199 W/m² | - |
| 1777906843 | 17.78° C | 73% | 1016.7 hPa | 0 mm | - | 125 W/m² | - |
| 1777905043 | 18.33° C | 71% | 1017 hPa | 0 mm | - | 220 W/m² | - |
| 1777904743 | 18.33° C | 70% | 1017 hPa | 0 mm | - | 241 W/m² | - |
| 1777902643 | 17.78° C | 71% | 1016.9 hPa | 0 mm | - | 292 W/m² | - |
| 1777901746 | 17.78° C | 69% | 1016.9 hPa | 0 mm | - | 181 W/m² | - |
| 1777901143 | 18.33° C | 69% | 1017.1 hPa | 0 mm | - | 207 W/m² | - |
| 1777900543 | 18.33° C | 67% | 1017.3 hPa | 0 mm | - | 241 W/m² | - |
| 1777899943 | 18.33° C | 66% | 1017.5 hPa | 0 mm | - | 269 W/m² | - |
| 1777898743 | 18.89° C | 66% | 1017.7 hPa | 0 mm | - | 503 W/m² | - |
* Rain latest hour (hover to see other rain measurements)
** Current wind speed in m/s (hover to see current wind gust speed)